[[{"header":{"parameterUnit":"m.s-1","parameterCategory":1,"la1":30.2991,"la2":30.254,"lo1":-89.0895,"lo2":-89.0444,"dy":0.0017,"dx":0.0017,"nx":28,"ny":28,"refTime":"2024-03-11T21:00:00:Z","depth":0,"parameterNumber":2,"parameterNumberName":"U-component_of_WINDS"},"data":[0,0,0,0,0,0,0,0,0,0,0,0,0,0,0,0,0,0,0,0,0,0,0,0,0,0,0,0,0,0,0,0,0,0,0,0,0,0,0,0,0,0,0,0,0,0,0,0,0,0,0,0,0,0,0,0,0,0,-1.0718,-1.0718,0,-1.0691,-1.0691,-1.0691,-1.0655,-1.0654,-1.0654,-1.0653,-1.0626,-1.0626,-1.0626,0,0,0,0,0,0,0,0,0,0,0,0,0,-1.0739,-1.0739,-1.0718,-1.0718,-1.0718,-1.0691,-1.0691,-1.0691,-1.0655,-1.0654,-1.0654,-1.0653,-1.0626,-1.0626,-1.0626,0,0,0,0,0,0,0,0,0,0,0,0,0,-1.0723,-1.0739,-1.0718,-1.0697,-1.0695,-1.0691,-1.0691,-1.0691,-1.0655,-1.0654,-1.0654,-1.0653,-1.0626,-1.0626,-1.0625,-1.0641,0,0,-1.0625,-1.0625,0,0,0,0,0,0,0,0,-1.0724,-1.0722,-1.07,-1.0698,-1.0696,-1.0676,-1.0688,-1.0674,-1.0656,-1.067,-1.0653,-1.0652,-1.0643,-1.0641,-1.0638,-1.064,-1.0639,-1.0625,-1.0624,-1.0624,-1.0624,0,0,0,0,0,0,0,-1.0725,-1.0723,-1.0708,-1.07,-1.0697,-1.0689,-1.0685,-1.0685,-1.0662,-1.0669,-1.0666,-1.0664,-1.0642,-1.0639,-1.0637,-1.0639,-1.0625,-1.0624,-1.0624,-1.0624,-1.0652,-1.0653,0,0,0,0,0,0,-1.073,-1.0725,-1.0708,-1.0707,-1.0708,-1.0689,-1.0685,-1.0683,-1.0662,-1.0658,-1.0664,-1.0662,-1.064,-1.0638,-1.0636,-1.0654,-1.0624,-1.0624,-1.0624,-1.0651,-1.0653,-1.0654,0,0,0,0,0,0,-1.073,-1.0729,-1.071,-1.0715,-1.0712,-1.0689,-1.0687,-1.0683,-1.068,-1.0658,-1.0654,-1.0665,-1.0639,-1.0637,-1.064,-1.0652,-1.0624,-1.0624,-1.065,-1.0652,-1.0653,-1.0689,0,0,0,0,0,0,-1.0731,-1.0729,-1.0735,-1.0715,-1.0712,-1.0714,-1.0688,-1.0683,-1.0679,-1.0676,-1.0658,-1.0655,-1.0638,-1.0641,-1.064,-1.0651,-1.0623,-1.0649,-1.0651,-1.0653,-1.0686,-1.0691,-1.0695,0,0,0,0,0,-1.0732,-1.0746,-1.0735,-1.0733,-1.0718,-1.0715,-1.0713,-1.0693,-1.068,-1.0686,-1.0672,-1.0655,-1.0651,-1.0642,-1.064,-1.0652,-1.0648,-1.0651,-1.0653,-1.0684,-1.069,-1.0695,0,0,0,0,0,0,-1.0767,-1.0743,-1.0731,-1.0739,-1.0729,-1.0709,-1.0715,-1.07,-1.0694,-1.0691,-1.0667,-1.0664,-1.0671,-1.0661,-1.0651,-1.0666,-1.0647,-1.0649,-1.0672,-1.0677,-1.0682,-1.0684,-1.0623,0,0,0,0,0,-1.0776,-1.0775,-1.0754,-1.0763,-1.0759,-1.0738,-1.0736,-1.0722,-1.0711,-1.0707,-1.0693,-1.0683,-1.068,-1.0678,-1.0674,-1.0685,-1.0681,-1.0692,-1.0697,-1.07,-1.0702,-1.0708,-1.0713,-1.066,-1.066,-1.066,0,0,-1.0794,-1.078,-1.0781,-1.077,-1.0761,-1.076,-1.0735,-1.0736,-1.0735,-1.0707,-1.0709,-1.0699,-1.0687,-1.0695,-1.0697,-1.0687,-1.0716,-1.0703,-1.0706,-1.0706,-1.071,-1.0715,-1.072,-1.0662,-1.0662,-1.0661,0,0,-1.0826,-1.0816,-1.0823,-1.0814,-1.0801,-1.0787,-1.0789,-1.0771,-1.0763,-1.0765,-1.0744,-1.0743,-1.0738,-1.073,-1.0725,-1.0755,-1.0739,-1.0754,-1.0777,-1.0783,-1.0787,-1.0791,-1.0802,-1.0806,-1.0756,-1.0756,-1.0756,0,-1.0851,-1.0849,-1.0828,-1.083,-1.0826,-1.08,-1.0807,-1.0799,-1.0785,-1.0783,-1.0772,-1.0765,-1.0754,-1.076,-1.0767,-1.0764,-1.0766,-1.0756,-1.0788,-1.0792,-1.0795,-1.0805,-1.0809,-1.0758,-1.0758,-1.0758,-1.0758,0,-1.088,-1.0879,-1.0886,-1.0873,-1.0869,-1.0874,-1.0854,-1.0853,-1.0839,-1.0826,-1.0829,-1.0816,-1.0809,-1.0809,-1.0796,-1.0813,-1.0807,-1.0793,-1.0773,-1.0802,-1.0811,-1.0815,-1.0761,-1.076,-1.076,-1.0759,0,0,-1.0934,-1.0909,-1.0912,-1.0906,-1.0889,-1.0888,-1.0892,-1.0885,-1.0884,-1.0876,-1.0878,-1.0874,-1.086,-1.0855,-1.0841,-1.0846,-1.0871,-1.083,-1.083,-1.0839,-1.0889,-1.0901,-1.0905,-1.086,-1.0861,-1.0861,-1.089,0,-1.0963,-1.0967,-1.0949,-1.0958,-1.0957,-1.0933,-1.0936,-1.0926,-1.0915,-1.0913,-1.09,-1.0897,-1.088,-1.0876,-1.088,-1.0867,-1.0881,-1.0864,-1.0862,-1.0862,-1.0866,-1.091,-1.0922,-1.095,-1.0894,-1.0894,-1.0895,0,-1.0998,-1.0992,-1.1001,-1.0984,-1.0983,-1.0986,-1.0978,-1.0976,-1.0965,-1.0956,-1.095,-1.0934,-1.0936,-1.0917,-1.092,-1.091,-1.0908,-1.0901,-1.0902,-1.0901,-1.088,-1.0911,-1.0959,-1.0963,-1.09,-1.09,-1.0899,0,-1.1037,-1.103,-1.1035,-1.103,-1.1011,-1.1013,-1.1005,-1.0993,-1.099,-1.0983,-1.0981,-1.0974,-1.0971,-1.0966,-1.0949,-1.0937,-1.0954,-1.0934,-1.0947,-1.0947,-1.0952,-1.0952,-1.1,-1.095,-1.095,-1.095,-1.095,0,-1.1072,-1.1079,-1.1052,-1.1055,-1.1062,-1.104,-1.1048,-1.1037,-1.1027,-1.1027,-1.1006,-1.1007,-1.0983,-1.0982,-1.0968,-1.0972,-1.0971,-1.0964,-1.096,-1.0966,-1.0967,-1.0965,-1.0962,-1.0951,-1.0951,-1.0951,-1.0951,0,-1.1117,-1.1099,-1.1103,-1.1084,-1.1079,-1.1085,-1.1069,-1.1071,-1.1058,-1.1059,-1.1058,-1.1038,-1.1035,-1.1017,-1.101,-1.1001,-1.1011,-1.1003,-1.1015,-1.1012,-1.1026,-1.1026,-1.1075,-1.1081,-1.1027,-1.1028,-1.1028,0,-1.1141,-1.1145,-1.1127,-1.1126,-1.1119,-1.1117,-1.1114,-1.1093,-1.1091,-1.1078,-1.1082,-1.1077,-1.1072,-1.1069,-1.1054,-1.1048,-1.104,-1.1058,-1.1039,-1.1045,-1.1041,-1.1041,-1.1042,-1.1062,-1.1063,-1.1064,-1.1064,0,-1.1185,-1.1176,-1.1172,-1.1165,-1.1162,-1.1156,-1.1148,-1.1148,-1.1125,-1.1124,-1.112,-1.1117,-1.111,-1.1105,-1.1097,-1.1089,-1.1073,-1.107,-1.1073,-1.1079,-1.1086,-1.1083,-1.1026,-1.1069,-1.1069,-1.1068,-1.1068,-1.1068,-1.122,-1.1223,-1.1211,-1.1207,-1.1199,-1.1193,-1.1194,-1.1181,-1.1178,-1.117,-1.1158,-1.1157,-1.1145,-1.1133,-1.1126,-1.1125,-1.1115,-1.1119,-1.112,-1.1122,-1.1125,-1.1086,-1.1123,-1.1123,-1.1123,-1.1123,-1.1123,0,-1.1264,-1.1254,-1.1251,-1.1241,-1.1239,-1.1223,-1.1214,-1.1213,-1.1212,-1.1203,-1.1198,-1.1195,-1.1191,-1.1175,-1.117,-1.1172,-1.1164,-1.1171,-1.1171,-1.1169,-1.1134,-1.1132,-1.1177,-1.1177,-1.1177,-1.1177,-1.1177,-1.1177,-1.1286,-1.129,-1.128,-1.128,-1.1271,-1.1269,-1.1265,-1.1259,-1.1251,-1.1249,-1.1245,-1.1235,-1.1223,-1.1216,-1.1212,-1.1208,-1.1207,-1.1216,-1.1209,-1.1177,-1.1171,-1.1167,-1.1165,-1.1216,-1.1216,-1.1245,-1.1245,-1.1245]},{"header":{"parameterUnit":"m.s-1","parameterCategory":1,"la1":30.2991,"la2":30.254,"lo1":-89.0895,"lo2":-89.0444,"dy":0.0017,"dx":0.0017,"nx":28,"ny":28,"refTime":"2024-03-11T21:00:00:Z","depth":0,"parameterNumber":3,"parameterNumberName":"V-component_of_WINDS"},"data":[0,0,0,0,0,0,0,0,0,0,0,0,0,0,0,0,0,0,0,0,0,0,0,0,0,0,0,0,0,0,0,0,0,0,0,0,0,0,0,0,0,0,0,0,0,0,0,0,0,0,0,0,0,0,0,0,0,0,3.1419,3.142,0,3.1498,3.1499,3.15,3.1487,3.1486,3.1484,3.1483,3.1559,3.1562,3.1565,0,0,0,0,0,0,0,0,0,0,0,0,0,3.1251,3.1254,3.1419,3.142,3.1421,3.1498,3.1499,3.15,3.1487,3.1486,3.1484,3.1482,3.1557,3.1561,3.1565,0,0,0,0,0,0,0,0,0,0,0,0,0,3.1326,3.1255,3.1419,3.1424,3.1425,3.1498,3.1499,3.15,3.1488,3.1486,3.1484,3.1482,3.1556,3.1561,3.1566,3.1636,0,0,3.1581,3.1583,0,0,0,0,0,0,0,0,3.1322,3.1332,3.1422,3.1424,3.1425,3.1481,3.1467,3.1546,3.1488,3.1464,3.1483,3.1481,3.1534,3.154,3.156,3.164,3.1643,3.1581,3.1584,3.1586,3.1588,0,0,0,0,0,0,0,3.1317,3.1329,3.145,3.1423,3.1425,3.142,3.1429,3.1482,3.1509,3.1466,3.1465,3.1475,3.1534,3.1555,3.1561,3.1644,3.1581,3.1585,3.1588,3.159,3.1784,3.1786,0,0,0,0,0,0,3.1311,3.1325,3.1447,3.1452,3.1368,3.1425,3.1435,3.1465,3.1508,3.1513,3.1476,3.1474,3.1548,3.1556,3.1564,3.1648,3.1586,3.1591,3.1594,3.1782,3.1784,3.1787,0,0,0,0,0,0,3.1307,3.1322,3.1444,3.1388,3.1404,3.143,3.1464,3.1467,3.1488,3.1517,3.1521,3.1493,3.1546,3.1557,3.1618,3.165,3.1593,3.1597,3.1779,3.1783,3.1786,3.1817,0,0,0,0,0,0,3.1303,3.1321,3.1349,3.1389,3.1407,3.1499,3.1466,3.147,3.1497,3.1495,3.1533,3.1538,3.1545,3.1611,3.1623,3.1656,3.1601,3.1776,3.1781,3.1785,3.1813,3.1821,3.1828,0,0,0,0,0,3.1297,3.1354,3.1351,3.1366,3.1443,3.1501,3.1511,3.1521,3.15,3.1528,3.1546,3.1536,3.1645,3.1617,3.1631,3.1666,3.1774,3.1779,3.1784,3.181,3.182,3.1828,0,0,0,0,0,0,3.1315,3.136,3.1356,3.1429,3.1462,3.1499,3.1534,3.1531,3.1568,3.1564,3.1573,3.1582,3.1643,3.1661,3.1629,3.1735,3.1707,3.1714,3.1721,3.1731,3.1738,3.1732,3.1605,0,0,0,0,0,3.1329,3.1374,3.1409,3.147,3.1487,3.1508,3.1533,3.1538,3.1571,3.1585,3.1607,3.1639,3.1679,3.1706,3.1746,3.1816,3.1823,3.1847,3.1854,3.186,3.1866,3.1902,3.1912,3.1803,3.1803,3.1803,0,0,3.1355,3.1385,3.1413,3.1474,3.15,3.1545,3.1519,3.1568,3.1601,3.1591,3.1651,3.1669,3.1704,3.177,3.18,3.1786,3.1898,3.1866,3.187,3.1873,3.1908,3.1919,3.1928,3.1807,3.1806,3.1805,0,0,3.1426,3.1454,3.1507,3.1534,3.1574,3.1588,3.16,3.1638,3.165,3.171,3.1704,3.1742,3.1813,3.1838,3.186,3.194,3.1932,3.1952,3.1989,3.2025,3.2034,3.2041,3.2068,3.2078,3.1959,3.1959,3.1959,0,3.1453,3.1523,3.1534,3.1584,3.161,3.1606,3.1658,3.1682,3.1733,3.175,3.1734,3.1823,3.1846,3.1917,3.1937,3.1955,3.1968,3.1947,3.2032,3.204,3.2047,3.2072,3.2082,3.1961,3.1961,3.1961,3.196,0,3.1553,3.1601,3.1639,3.1689,3.172,3.177,3.1787,3.1817,3.1818,3.1833,3.1893,3.1921,3.1966,3.1983,3.1985,3.2054,3.2044,3.203,3.2001,3.2059,3.2083,3.2093,3.1964,3.1963,3.1963,3.1962,0,0,3.1638,3.1694,3.1708,3.173,3.1773,3.1809,3.1859,3.1904,3.1928,3.1963,3.2003,3.2063,3.205,3.2075,3.208,3.2111,3.217,3.2093,3.2094,3.2105,3.2245,3.2254,3.2265,3.2166,3.2168,3.2169,3.2242,0,3.1712,3.1801,3.1813,3.1891,3.1934,3.193,3.1973,3.2003,3.2018,3.2055,3.2071,3.2113,3.2094,3.2109,3.214,3.2157,3.2198,3.2152,3.2201,3.2202,3.2191,3.2278,3.2288,3.2355,3.2251,3.2253,3.2254,0,3.181,3.1849,3.1932,3.1969,3.1987,3.2026,3.2067,3.2104,3.2137,3.2145,3.2173,3.2173,3.2222,3.2192,3.2258,3.2226,3.2247,3.2258,3.2261,3.2264,3.2231,3.2282,3.2377,3.2386,3.2269,3.2268,3.2267,0,3.1861,3.1934,3.1993,3.2012,3.2057,3.2084,3.2103,3.2135,3.2161,3.2197,3.2213,3.2254,3.2275,3.2305,3.2316,3.2293,3.238,3.2352,3.2387,3.2386,3.2404,3.2402,3.2501,3.242,3.242,3.242,3.242,0,3.1941,3.1992,3.2016,3.2052,3.2108,3.212,3.2174,3.2192,3.222,3.2258,3.2257,3.2292,3.2304,3.234,3.2349,3.2401,3.2411,3.2417,3.2419,3.2417,3.2416,3.2429,3.2424,3.2422,3.2422,3.2421,3.2421,0,3.2007,3.2026,3.209,3.2127,3.2138,3.2177,3.2208,3.2242,3.2256,3.2304,3.2316,3.2338,3.238,3.2394,3.2446,3.2451,3.2511,3.2509,3.25,3.25,3.2533,3.2529,3.2643,3.2657,3.2568,3.2569,3.257,0,3.2057,3.2096,3.2138,3.2164,3.2185,3.2227,3.2254,3.2266,3.2294,3.2334,3.2362,3.2405,3.244,3.2508,3.2527,3.2566,3.2564,3.2601,3.2569,3.2566,3.2562,3.2559,3.2562,3.2606,3.2607,3.2608,3.2608,0,3.2142,3.2149,3.2189,3.2232,3.2264,3.2298,3.233,3.2351,3.2368,3.2399,3.2443,3.247,3.2523,3.2565,3.2604,3.2622,3.2617,3.2619,3.2628,3.2626,3.2618,3.2621,3.2515,3.2615,3.2615,3.2614,3.2614,3.2614,3.22,3.2233,3.2268,3.2312,3.2338,3.2369,3.2402,3.2421,3.2459,3.2504,3.2509,3.2556,3.2587,3.264,3.2659,3.2695,3.2684,3.2699,3.2702,3.2705,3.2707,3.2614,3.2702,3.2702,3.2702,3.2702,3.2702,0,3.2283,3.2305,3.2346,3.2392,3.2426,3.2421,3.2456,3.2484,3.2527,3.2557,3.2591,3.2641,3.2682,3.2704,3.2744,3.2768,3.2767,3.2778,3.2775,3.2779,3.2715,3.2702,3.2778,3.2778,3.2778,3.2778,3.2778,3.2778,3.233,3.2387,3.2398,3.2467,3.2488,3.2536,3.2556,3.2584,3.2607,3.2664,3.2698,3.2713,3.274,3.2781,3.2817,3.2822,3.2836,3.2848,3.2852,3.2792,3.2784,3.2776,3.2764,3.2852,3.2852,3.2913,3.2913,3.2914]}]]